Location: Newark
(45.8378°N, 5.5389°E)
Time: 00:52:22
(UTC+00:00)

YUBILEINY - Visible Passes

Search period start: 15 December 2019 00:00
Search period end: 25 December 2019 00:00
Orbit: 1477 x 1509 km, 82.5° (Epoch: 14 December)

Date Brightness Start Highest point End Pass type
(mag) Time Alt. Az. Time Alt. Az. Time Alt. Az.
15 Dec ? 05:28:18 10° NNE 05:34:10 19° ENE 05:40:00 10° E visible
16 Dec ? 04:41:42 10° NE 04:43:10 10° NE 04:44:38 10° NE visible
16 Dec ? 06:34:23 10° N 06:42:45 47° ENE 06:51:04 10° SE visible
17 Dec ? 05:45:17 10° N 05:52:32 28° ENE 05:59:44 10° ESE visible
18 Dec ? 04:56:49 10° NNE 05:01:52 16° NE 05:06:55 10° E visible
19 Dec ? 06:02:33 10° N 06:10:40 41° ENE 06:18:44 10° SE visible
20 Dec ? 05:13:35 10° N 05:20:20 24° ENE 05:27:02 10° ESE visible
20 Dec?20:31:44N20:31:44N20:11:25Svisible
21 Dec ? 04:25:30 10° NNE 04:29:32 14° NE 04:33:33 10° E visible
21 Dec ? 06:20:00 10° N 06:28:36 59° ENE 06:37:11 10° SSE visible
21 Dec?19:42:20NNE19:42:20NNE19:23:19Svisible
21 Dec?21:38:13N21:38:13N21:19:19SWvisible
22 Dec ? 05:30:45 10° N 05:38:33 35° ENE 05:46:20 10° SE visible
22 Dec ? 18:35:18 10° SE 18:52:53 - NNE 18:35:18 10° SE visible
22 Dec ? 20:30:49 10° SSW 20:48:46 - N 20:31:19 12° SSW visible
23 Dec ? 04:41:56 10° NNE 04:48:06 21° ENE 04:54:13 10° ESE visible
23 Dec ? 06:37:35 10° N 06:46:22 84° E 06:55:08 10° S visible
23 Dec?18:03:24NNE18:03:24NNE17:47:24ESEvisible
23 Dec ? 19:40:53 10° S 19:59:16 - N 19:43:25 22° S visible
23 Dec?21:55:08N21:55:08N21:39:26WSWvisible
24 Dec ? 03:54:38 10° NNE 03:57:09 11° NE 03:59:40 10° ENE visible
24 Dec ? 05:48:08 10° N 05:56:34 50° ENE 06:04:59 10° SSE visible
24 Dec ? 18:51:54 10° SSE 19:09:40 - NNE 18:55:40 28° SSE visible
24 Dec ? 20:49:20 10° SW 21:05:32 - N 20:51:42 19° SW visible
